Wetbulb
68.92 72.83 72.30 73.08 73.00 72.81 72.60 72.51 72.48 73.21 73.94 74.53 73.94 73.55 73.62 73.81 73.68 73.99 74.37 74.53 74.62 74.94 74.62 74.60 74.40 74.74 74.80 74.62 74.34 73.91 73.45 73.04 72.81 73.18 73.39 73.40 73.10 72.83 72.57 72.69 72.20 71.93 72.34
70.35 73.14 71.76 72.70 73.00 72.83 72.79 72.58 72.43 73.15 74.05 74.53 73.98 73.54 73.53 73.67 73.62 73.90 74.12 74.31 73.51 74.64 74.17 74.30 74.52 74.45 74.77 73.59 73.22 72.67 72.41 71.99 72.07 72.48 72.62 72.90 72.53 72.71 72.20 72.04 71.79 71.94 71.91
71.23 72.81 72.98 72.19 72.71 72.79 72.73 72.77 72.87 73.47 74.12 74.35 74.03 73.84 73.70 73.83 73.73 73.75 73.87 74.03 74.30 74.62 74.44 73.97 74.07 74.20 74.00 73.01 72.30 72.12 71.94 71.86 71.84 71.93 71.86 72.04 71.38 71.94 71.80 71.94 71.57 71.92 71.71
71.72 72.46 73.01 71.93 72.27 72.45 72.50 72.48 72.82 73.52 73.87 73.93 73.94 73.70 73.67 73.80 73.83 73.70 73.48 73.33 73.82 74.12 74.17 73.49 73.29 73.35 73.16 72.11 71.65 71.78 71.65 71.18 70.93 70.78 71.90 70.96 71.69 71.86 71.58 71.62 71.59 71.62 71.47
71.44 72.30 72.72 71.39 71.76 72.21 72.18 72.44 72.57 73.03 73.05 73.18 73.46 74.02 73.99 73.80 73.95 73.64 73.05 72.87 73.59 73.99 74.07 73.79 73.47 73.02 71.77 71.00 70.99 70.99 70.90 70.34 69.42 70.75 70.50 70.80 71.99 71.08 71.54 71.36 71.36 71.27 70.85
71.23 72.04 71.08 70.54 71.14 71.96 72.21 72.43 72.45 72.17 71.95 72.31 72.80 73.57 73.94 74.05 73.87 73.08 72.33 72.60 73.49 73.74 73.97 73.77 73.52 71.80 70.48 70.20 70.22 70.15 69.76 69.01 69.02 71.06 70.05 70.58 70.59 71.18 71.22 70.91 70.00 70.63 70.31
70.87 71.91 72.04 69.78 70.74 71.72 72.33 72.39 72.13 71.59 71.56 71.83 72.52 73.01 73.33 73.70 73.37 72.22 71.61 72.14 72.87 73.17 73.35 73.09 71.95 70.79 69.97 69.62 69.78 69.10 68.63 68.32 71.09 70.38 69.27 70.34 70.36 70.80 70.97 70.20 69.95 69.91 69.83
70.73 71.47 72.06 70.63 70.59 70.96 71.49 71.56 70.92 70.82 71.02 71.48 71.84 72.48 72.86 72.72 72.22 71.63 71.22 71.56 71.80 72.03 71.94 71.38 70.55 70.19 69.71 69.39 68.81 68.07 67.40 67.73 69.64 69.84 70.04 69.75 70.30 70.57 70.43 69.93 69.42 69.00 69.07
70.58 70.94 71.38 72.11 71.80 69.81 69.65 69.83 69.62 69.77 70.33 70.76 71.06 71.21 71.60 70.92 70.41 70.70 70.77 70.98 71.20 70.88 70.76 70.20 69.74 69.28 69.21 68.81 67.96 67.06 66.55 66.93 70.18 69.71 69.37 70.16 69.69 70.26 70.14 69.52 69.53 68.88 68.57
69.03 69.82 69.83 70.33 71.53 72.15 72.45 68.97 68.90 69.17 69.17 69.84 70.36 70.16 69.74 69.60 69.51 69.66 69.56 70.14 70.19 70.24 69.91 69.42 68.89 68.72 68.47 67.76 67.06 66.32 66.05 66.19 70.04 69.65 69.92 70.26 68.91 70.14 69.73 68.67 68.42 68.08 67.55
66.25 67.95 68.68 68.75 69.52 71.14 70.69 70.96 69.85 69.51 69.28 69.08 70.07 69.26 68.88 72.46 71.83 70.90 69.13 68.57 69.05 68.95 68.86 68.62 68.20 67.82 66.95 66.93 66.84 66.23 65.37 69.59 69.19 69.34 70.05 67.71 68.57 69.79 69.14 68.19 67.66 67.45 67.08
65.25 65.98 66.88 67.63 68.35 68.98 68.93 70.02 70.84 71.02 71.72 71.86 71.94 72.14 72.83 72.38 72.18 70.78 68.82 67.53 67.79 67.50 67.53 67.33 67.08 66.46 67.23 69.90 69.10 66.72 67.95 68.17 68.32 66.79 68.17 65.60 68.28 69.43 68.93 67.88 66.82 66.31 66.47
65.31 66.02 65.48 66.44 67.82 68.05 68.40 68.97 69.19 70.02 70.42 70.60 71.86 71.99 71.73 71.02 70.88 70.32 69.95 69.47 69.68 67.32 68.46 67.65 67.56 69.12 69.34 69.48 69.24 69.09 68.90 67.36 68.19 67.50 66.26 65.62 67.47 68.67 68.14 67.12 66.65 65.82 65.81
64.23 65.37 65.60 66.25 66.53 67.38 68.21 67.89 68.03 68.50 68.96 69.14 70.41 71.52 70.18 68.43 68.76 69.70 69.19 69.37 69.02 68.80 68.12 67.74 66.60 67.03 67.82 68.43 68.56 68.44 68.44 67.13 68.27 67.35 65.92 65.06 66.37 67.84 67.98 66.89 66.17 65.26 64.52
64.58 65.10 65.62 65.48 65.37 66.30 66.83 67.01 67.08 67.43 67.64 68.00 69.22 69.58 70.13 68.19 67.75 69.08 68.80 68.57 68.24 68.15 67.84 67.41 66.64 65.99 66.20 67.18 67.80 67.66 67.11 67.80 68.00 68.09 68.16 64.18 64.97 66.94 67.52 67.46 66.25 65.30 64.36
66.29 65.70 66.15 65.34 65.24 66.02 66.10 66.30 66.54 66.80 67.03 67.43 68.01 68.65 69.48 68.47 67.64 67.53 67.84 67.61 68.09 67.85 66.20 67.25 66.50 66.04 65.91 66.47 66.41 66.88 66.90 67.25 67.70 67.85 68.30 66.99 63.44 64.34 66.12 66.73 66.54 65.63 64.65
66.03 67.14 66.26 66.42 66.87 65.93 65.46 66.01 65.40 65.96 67.41 68.71 67.85 68.23 68.62 68.45 67.09 67.19 67.34 67.11 67.86 67.35 65.68 66.97 66.65 66.30 65.39 65.22 65.48 65.70 65.99 66.47 66.81 66.34 66.89 67.16 65.05 62.66 63.50 65.45 65.47 65.75 64.64
61.63 66.84 66.85 66.20 66.35 66.58 66.11 65.67 65.29 66.41 67.81 68.44 68.08 66.91 66.97 67.91 67.85 66.95 66.18 66.63 68.01 65.63 64.96 65.86 64.53 64.45 65.01 64.49 64.33 64.74 64.92 65.63 65.92 66.50 66.50 66.34 66.76 65.43 63.10 63.49 64.33 64.52 64.73
58.34 66.39 67.18 66.98 66.13 66.77 66.99 66.92 66.88 66.68 67.26 67.80 67.96 66.31 66.12 67.47 68.02 66.93 66.14 65.88 65.99 65.45 64.40 64.48 63.12 64.18 62.92 64.03 63.47 63.90 64.39 64.66 64.90 65.08 65.13 65.35 65.87 66.00 64.49 62.81 62.55 62.58 63.34
55.99 65.94 68.02 67.10 66.87 67.03 67.05 66.53 66.45 65.73 66.28 67.25 67.34 67.30 66.37 66.76 67.23 66.93 66.23 65.83 65.16 64.47 63.33 63.94 63.36 63.95 64.44 64.49 62.20 62.24 63.12 63.56 64.70 63.89 63.79 64.77 65.54 65.61 64.72 62.78 62.92 62.40 60.71
56.43 64.03 67.15 67.19 66.63 66.06 65.85 64.62 63.73 63.16 64.00 64.70 67.03 67.34 66.55 66.19 66.58 66.92 65.32 64.61 64.18 63.41 63.05 63.36 63.14 62.74 62.57 64.41 61.92 60.40 61.63 62.63 62.25 62.57 63.10 63.39 63.77 64.08 64.15 61.91 62.51 63.09 62.30
50.09 54.11 66.35 67.32 67.21 65.98 66.21 65.95 66.40 65.47 65.38 65.30 65.70 65.78 66.50 66.93 66.01 66.18 65.43 63.74 63.40 63.28 63.06 62.73 62.63 61.29 61.76 62.87 59.70 58.96 55.91 58.56 60.34 61.98 63.06 62.62 63.12 63.46 62.27 61.27 61.19 62.52 62.48
47.09 49.52 53.94 64.84 67.75 67.21 66.81 66.60 66.41 66.16 66.23 64.95 64.70 64.68 65.01 66.86 66.39 66.31 65.70 64.79 63.85 63.54 62.82 62.55 62.31 62.35 59.99 60.95 61.54 59.49 55.15 54.10 57.13 59.62 61.03 61.75 62.24 61.61 62.03 62.11 59.91 60.79 62.74
44.92 47.86 51.94 56.34 65.80 66.78 66.47 66.31 64.92 64.35 63.04 64.76 65.22 65.34 64.57 65.66 65.77 66.20 65.56 65.21 64.39 63.92 63.39 62.76 62.57 62.86 62.71 60.34 60.65 61.27 60.95 58.61 55.49 53.94 57.63 60.03 61.35 60.61 61.15 61.76 59.71 59.85 61.78
43.76 44.95 47.80 51.39 51.72 54.08 62.80 66.03 64.81 64.99 65.74 65.66 65.47 64.57 64.97 64.96 65.30 65.84 65.49 64.72 64.70 64.15 64.22 63.92 63.39 62.70 63.54 62.99 60.90 60.11 61.04 60.09 59.72 55.26 53.57 56.37 58.92 60.42 61.27 60.40 60.30 59.95 60.90
42.02 43.41 45.49 48.39 48.93 50.18 52.69 54.88 62.59 65.21 64.90 63.53 64.48 63.89 64.41 64.90 64.39 65.41 65.34 65.28 65.37 64.97 64.99 64.97 64.21 63.49 63.67 62.99 61.71 60.86 60.05 58.34 56.37 55.75 54.90 55.29 56.09 57.97 60.11 59.56 59.36 59.37 59.85
MSLP
1006.87 1007.08 1007.91 1008.46 1009.01 1009.47 1009.93 1010.22 1010.35 1010.41 1010.42 1010.45 1010.81 1011.27 1011.66 1012.03 1012.39 1012.77 1013.04 1013.34 1013.67 1013.86 1014.09 1014.35 1014.59 1014.77 1015.02 1015.25 1015.42 1015.68 1015.84 1016.06 1016.15 1016.39 1016.63 1016.74 1017.01 1017.24 1017.64 1017.67 1017.75 1017.95 1018.30
1006.67 1007.05 1007.79 1008.41 1009.00 1009.51 1009.97 1010.19 1010.43 1010.56 1010.68 1010.73 1010.90 1011.29 1011.70 1012.11 1012.55 1012.80 1013.12 1013.45 1013.53 1013.97 1014.24 1014.47 1014.65 1014.84 1015.11 1015.40 1015.65 1015.81 1016.07 1016.31 1016.45 1016.73 1016.91 1017.01 1017.29 1017.67 1017.99 1017.97 1017.99 1018.41 1018.73
1006.55 1006.92 1007.43 1008.24 1008.87 1009.49 1010.04 1010.18 1010.34 1010.71 1010.90 1011.00 1011.07 1011.50 1011.83 1012.22 1012.56 1012.88 1013.23 1013.51 1013.75 1014.05 1014.30 1014.55 1014.77 1014.93 1015.23 1015.50 1015.81 1015.97 1016.27 1016.59 1016.79 1016.93 1017.15 1017.18 1017.65 1017.94 1018.36 1018.33 1018.52 1018.84 1018.89
1006.24 1006.69 1007.28 1008.01 1008.63 1009.29 1009.91 1010.27 1010.43 1010.53 1010.98 1011.16 1011.21 1011.57 1011.95 1012.36 1012.60 1012.98 1013.36 1013.63 1013.86 1014.14 1014.39 1014.59 1014.84 1015.05 1015.35 1015.57 1015.86 1016.07 1016.37 1016.81 1017.09 1017.13 1017.27 1017.77 1018.01 1018.34 1018.59 1018.73 1018.85 1019.05 1019.37
1006.77 1006.91 1007.50 1008.14 1008.77 1009.44 1009.93 1010.25 1010.47 1010.72 1010.94 1011.28 1011.41 1011.71 1011.99 1012.33 1012.67 1013.05 1013.47 1013.77 1013.95 1014.17 1014.41 1014.65 1014.91 1015.27 1015.56 1015.91 1016.21 1016.43 1016.52 1016.78 1017.34 1017.25 1017.44 1017.86 1018.10 1018.59 1018.79 1018.95 1019.20 1019.31 1019.36
1006.99 1007.15 1007.76 1008.11 1008.67 1009.25 1009.81 1010.27 1010.49 1010.85 1011.03 1011.33 1011.58 1011.91 1012.11 1012.39 1012.79 1013.20 1013.61 1013.89 1014.05 1014.25 1014.50 1014.83 1015.09 1015.55 1015.86 1016.11 1016.47 1016.75 1017.11 1016.97 1017.11 1017.32 1017.77 1017.97 1018.35 1018.67 1019.07 1019.14 1019.41 1019.63 1019.85
1007.19 1007.36 1007.83 1008.25 1008.58 1009.13 1009.59 1010.13 1010.45 1010.94 1011.11 1011.41 1011.63 1011.97 1012.27 1012.52 1012.91 1013.32 1013.80 1014.01 1014.23 1014.39 1014.68 1015.06 1015.37 1015.70 1016.05 1016.24 1016.59 1016.88 1017.17 1017.49 1016.88 1017.53 1017.98 1018.13 1018.35 1018.81 1019.13 1019.44 1019.66 1019.99 1020.19
1007.93 1007.95 1008.08 1008.66 1009.13 1009.45 1009.70 1010.10 1010.63 1011.02 1011.16 1011.35 1011.71 1011.91 1012.30 1012.59 1012.99 1013.50 1013.85 1014.25 1014.50 1014.66 1014.97 1015.29 1015.59 1015.86 1016.19 1016.47 1016.83 1017.10 1017.34 1017.54 1017.41 1017.61 1018.11 1018.25 1018.54 1018.89 1019.15 1019.57 1019.79 1020.03 1020.37
1008.21 1008.23 1008.39 1008.85 1009.37 1009.79 1009.99 1010.14 1010.55 1011.15 1011.42 1011.36 1011.62 1012.05 1012.35 1012.69 1013.09 1013.55 1013.92 1014.37 1014.69 1014.97 1015.17 1015.52 1015.79 1016.01 1016.29 1016.64 1016.99 1017.27 1017.61 1017.84 1017.73 1017.87 1018.18 1018.18 1018.80 1018.86 1019.28 1019.61 1019.89 1020.13 1020.50
1008.45 1008.73 1008.65 1008.91 1009.41 1009.86 1010.12 1010.41 1010.60 1011.12 1011.64 1011.66 1011.64 1011.98 1012.49 1012.87 1013.19 1013.61 1013.99 1014.37 1014.74 1015.13 1015.36 1015.71 1016.09 1016.25 1016.55 1016.81 1017.19 1017.51 1017.73 1018.17 1017.94 1018.07 1018.23 1018.19 1018.86 1019.07 1019.45 1019.81 1020.02 1020.20 1020.67
1008.66 1008.63 1008.97 1009.15 1009.17 1009.52 1010.06 1010.45 1010.83 1010.95 1011.61 1012.03 1011.96 1012.07 1012.46 1012.83 1013.29 1013.79 1013.99 1014.38 1014.81 1015.22 1015.47 1015.78 1016.27 1016.57 1016.81 1017.12 1017.35 1017.68 1018.17 1018.24 1018.23 1018.28 1018.29 1018.61 1018.80 1019.12 1019.41 1019.87 1020.24 1020.48 1020.79
1008.40 1008.65 1008.98 1009.11 1009.30 1009.48 1009.85 1010.44 1010.91 1011.08 1011.06 1011.80 1012.02 1012.11 1012.33 1012.67 1013.13 1013.63 1014.22 1014.50 1014.89 1015.29 1015.61 1015.98 1016.27 1016.72 1016.98 1017.13 1017.55 1018.05 1018.22 1018.43 1018.65 1018.70 1018.63 1019.03 1018.98 1019.14 1019.52 1020.15 1020.48 1020.68 1020.93
1008.56 1008.67 1009.29 1009.50 1009.29 1009.48 1009.78 1010.17 1010.81 1011.05 1011.03 1011.25 1011.90 1011.97 1012.32 1012.73 1013.11 1013.69 1014.18 1014.54 1014.89 1015.35 1015.57 1015.95 1016.35 1016.45 1016.76 1017.09 1017.39 1017.64 1018.04 1018.52 1018.69 1018.88 1018.83 1019.06 1019.44 1019.19 1019.81 1020.35 1020.63 1020.82 1021.08
1007.96 1008.26 1008.73 1009.35 1009.47 1009.09 1009.33 1009.83 1010.37 1011.02 1011.11 1011.02 1011.40 1011.95 1012.25 1012.67 1013.01 1013.33 1013.76 1014.29 1014.71 1015.11 1015.47 1015.74 1016.11 1016.53 1016.76 1017.09 1017.34 1017.65 1017.95 1018.47 1018.48 1018.74 1018.84 1019.13 1019.31 1019.60 1019.92 1020.46 1020.76 1020.99 1021.23
1006.84 1007.55 1008.15 1008.88 1009.25 1009.20 1009.26 1009.63 1009.89 1010.59 1011.06 1011.09 1011.07 1011.68 1012.03 1012.46 1012.83 1013.07 1013.57 1014.12 1014.50 1015.03 1015.37 1015.71 1015.98 1016.47 1016.75 1016.98 1017.27 1017.58 1017.77 1018.04 1018.30 1018.42 1018.60 1019.03 1019.34 1019.67 1019.68 1020.07 1020.63 1020.98 1021.33
1005.91 1006.18 1007.35 1008.19 1008.67 1009.00 1009.06 1009.48 1009.63 1009.83 1010.50 1010.90 1010.95 1011.08 1011.71 1012.21 1012.61 1012.95 1013.42 1013.98 1014.39 1014.76 1015.50 1015.51 1015.79 1016.39 1016.69 1016.91 1017.15 1017.38 1017.61 1017.94 1018.11 1018.29 1018.45 1018.91 1019.23 1019.69 1019.79 1019.77 1020.25 1020.85 1021.24
1005.01 1005.34 1005.65 1007.02 1007.99 1008.34 1008.62 1009.11 1009.47 1009.50 1009.86 1010.41 1010.67 1010.83 1011.31 1011.85 1012.41 1012.71 1013.22 1013.71 1014.11 1014.69 1015.45 1015.52 1015.96 1016.37 1016.71 1017.01 1017.16 1017.35 1017.57 1017.79 1018.00 1018.47 1018.59 1018.51 1019.18 1019.48 1019.78 1019.59 1020.25 1020.59 1021.01
1004.17 1004.49 1004.87 1005.37 1006.90 1007.67 1008.19 1008.60 1009.11 1009.34 1009.40 1009.86 1010.45 1010.67 1010.93 1011.37 1012.05 1012.53 1012.97 1013.45 1013.82 1014.56 1015.25 1015.48 1015.93 1016.37 1016.62 1016.97 1017.18 1017.35 1017.55 1017.70 1017.89 1018.15 1018.48 1018.66 1018.77 1019.28 1019.78 1020.01 1020.27 1020.48 1020.85
1003.17 1003.51 1003.99 1004.51 1005.21 1006.52 1007.41 1008.23 1008.56 1008.91 1008.98 1009.27 1010.01 1010.54 1010.62 1010.86 1011.54 1012.27 1012.72 1013.23 1013.75 1014.35 1015.01 1015.41 1015.78 1016.08 1016.53 1016.79 1017.09 1017.40 1017.59 1017.64 1017.76 1018.03 1018.41 1018.57 1018.70 1018.98 1019.44 1019.81 1020.24 1020.28 1020.57
1002.67 1002.60 1003.06 1003.54 1004.08 1005.40 1006.63 1007.76 1008.19 1008.56 1008.69 1008.80 1009.30 1009.79 1010.29 1010.33 1010.84 1011.79 1012.49 1012.92 1013.39 1014.09 1014.71 1015.13 1015.47 1015.87 1016.11 1016.31 1016.89 1017.23 1017.55 1017.63 1017.69 1018.01 1018.13 1018.35 1018.46 1018.71 1019.12 1019.48 1019.85 1020.10 1020.23
1002.51 1001.98 1002.38 1003.03 1003.53 1004.61 1005.67 1006.69 1007.33 1007.93 1008.47 1008.74 1008.93 1009.42 1009.96 1010.19 1010.43 1010.94 1012.03 1012.74 1013.19 1013.66 1014.19 1014.70 1015.21 1015.59 1015.95 1016.31 1016.84 1017.11 1017.29 1017.44 1017.61 1017.76 1017.87 1018.10 1018.22 1018.48 1018.77 1019.18 1019.40 1019.58 1019.91
1003.55 1002.89 1001.95 1002.21 1002.90 1003.41 1004.28 1005.52 1006.44 1007.15 1007.71 1008.28 1008.68 1009.09 1009.53 1009.77 1010.15 1010.49 1011.18 1012.19 1012.87 1013.35 1013.83 1014.30 1014.60 1015.15 1015.61 1016.06 1016.57 1016.93 1017.15 1017.48 1017.30 1017.41 1017.54 1017.67 1017.91 1018.09 1018.47 1018.78 1019.09 1019.19 1019.42
1004.35 1003.76 1003.06 1002.11 1002.24 1002.61 1003.87 1005.25 1006.27 1006.77 1007.42 1007.95 1008.12 1008.45 1008.84 1009.03 1009.57 1009.98 1010.54 1011.29 1012.19 1012.72 1013.13 1013.71 1014.13 1014.45 1014.92 1015.58 1015.83 1016.06 1016.58 1016.61 1016.89 1017.06 1017.00 1017.14 1017.49 1017.73 1017.90 1018.22 1018.61 1018.86 1018.93
1005.30 1004.67 1003.79 1003.00 1002.37 1002.64 1003.38 1004.37 1005.17 1005.59 1006.23 1006.62 1007.17 1007.77 1008.35 1008.77 1009.03 1009.49 1009.97 1010.61 1011.27 1011.99 1012.33 1012.87 1013.55 1013.94 1014.25 1014.69 1015.47 1015.50 1015.44 1015.91 1016.24 1016.73 1016.81 1016.65 1016.85 1017.07 1017.35 1017.68 1018.10 1018.26 1018.47
1006.13 1005.43 1004.83 1004.12 1003.66 1003.61 1003.57 1004.07 1004.81 1005.35 1005.83 1006.33 1006.77 1007.41 1007.91 1008.33 1008.61 1008.97 1009.39 1009.98 1010.59 1011.11 1011.53 1012.05 1012.69 1013.22 1013.49 1013.75 1014.19 1014.71 1015.07 1015.30 1015.68 1015.98 1016.27 1016.35 1016.51 1016.43 1016.71 1017.00 1017.29 1017.69 1017.95
1006.94 1005.97 1005.65 1005.04 1004.92 1004.90 1004.76 1005.09 1004.97 1005.06 1005.56 1006.19 1006.37 1006.58 1007.00 1007.42 1007.90 1008.33 1008.61 1009.17 1009.71 1010.21 1010.60 1011.21 1011.79 1012.28 1012.65 1013.01 1013.37 1013.64 1013.87 1014.27 1014.72 1015.17 1015.45 1015.57 1015.60 1015.73 1015.86 1016.31 1016.66 1016.91 1017.18
Wind_Speed
11 18 18 18 16 14 11 11 11 11 12 15 18 18 18 17 18 17 17 15 14 15 15 14 10 10 13 12 11 9 10 12 12 13 14 17 17 17 16 14 14 16 16
14 18 19 19 17 15 13 12 11 11 12 15 17 18 17 17 17 17 16 15 15 15 16 13 11 11 13 12 11 11 12 12 13 13 15 17 17 17 17 13 13 16 16
18 18 20 19 18 17 15 14 13 13 13 14 16 16 17 17 17 16 16 15 15 15 15 13 11 11 14 13 12 12 12 13 12 13 12 11 12 17 17 15 16 16 17
18 18 18 20 20 18 16 15 14 14 14 15 17 17 18 17 16 16 15 14 14 15 14 14 13 13 13 13 13 14 14 12 11 12 11 9 12 16 17 17 17 18 17
15 16 16 19 18 17 16 15 14 12 12 13 15 17 17 17 17 16 14 13 14 15 14 14 14 12 12 12 12 13 14 15 12 11 13 9 11 14 17 17 16 17 16
14 15 17 18 17 17 16 15 14 13 12 12 14 15 16 16 16 14 13 13 14 14 13 13 13 12 12 13 12 13 11 14 13 12 11 10 11 16 17 14 16 15 16
13 13 17 15 17 18 18 16 15 13 13 13 13 14 15 15 14 13 12 11 11 11 11 12 13 13 13 13 13 13 13 10 13 12 11 10 10 17 18 17 16 15 13
10 11 13 13 13 14 16 15 13 13 14 14 14 14 14 13 13 12 11 10 10 10 11 12 13 13 13 13 13 12 11 9 10 12 10 8 12 17 17 16 15 15 14
9 10 10 12 12 9 11 13 13 12 12 14 14 13 13 12 12 12 11 11 10 11 11 12 12 13 13 13 12 12 10 7 11 9 10 9 13 16 16 16 15 16 16
8 9 11 11 12 13 12 10 12 11 10 12 14 13 12 12 11 11 11 11 11 11 11 11 11 12 11 12 11 10 10 7 10 10 8 7 16 17 18 16 14 15 14
8 11 11 11 12 12 11 11 11 13 10 9 11 12 12 10 12 13 9 12 12 11 12 12 11 10 10 10 11 9 6 5 7 7 6 11 15 17 15 13 13 14 13
13 12 12 12 12 11 9 10 11 12 12 11 12 13 10 11 10 10 9 11 12 11 12 12 12 11 10 7 6 9 5 6 5 3 2 3 14 14 15 14 15 14 13
10 10 11 11 12 12 10 7 5 6 6 9 13 12 10 9 8 7 6 7 9 10 8 9 9 7 9 7 7 7 6 6 4 4 5 7 11 14 15 14 14 14 14
12 14 12 12 11 13 9 7 7 6 6 6 10 13 9 6 8 8 7 8 9 7 9 8 6 6 7 8 8 8 7 5 4 3 4 10 12 11 15 13 14 14 14
17 14 15 11 12 12 12 8 8 8 6 10 9 11 9 9 8 9 8 8 8 7 8 8 7 6 7 8 8 8 7 6 7 5 5 10 9 13 15 17 15 14 15
19 18 16 16 15 14 11 13 9 9 11 9 10 9 12 9 8 7 9 9 8 8 7 8 8 7 7 7 7 7 7 5 6 5 5 6 8 5 14 17 17 16 15
18 19 20 19 18 16 16 13 10 10 10 11 10 11 12 11 11 9 7 8 9 8 8 7 7 6 6 5 7 6 5 5 5 6 5 5 6 12 6 10 11 15 16
18 19 19 17 19 18 15 12 10 10 11 10 10 10 11 13 13 11 7 7 8 7 6 8 7 7 6 6 6 5 5 5 6 6 6 5 7 7 8 10 13 13 14
19 20 21 20 22 20 17 13 13 12 11 10 10 9 12 13 13 10 7 7 8 6 6 8 7 8 7 7 6 4 4 5 6 5 7 8 9 10 7 11 12 13 14
20 19 20 18 20 19 13 11 10 9 10 10 11 11 14 12 14 11 7 8 8 7 6 7 9 8 6 7 5 5 5 5 5 6 7 7 9 11 10 7 7 8 13
13 17 21 20 19 15 12 12 12 10 9 9 10 13 14 12 14 13 7 8 8 8 8 9 7 10 6 6 4 3 4 7 7 7 6 6 9 10 11 8 6 7 9
6 7 17 21 21 17 13 11 8 10 9 9 8 10 14 14 14 13 11 10 9 7 9 10 10 5 5 8 3 2 2 3 4 8 7 7 10 8 8 9 8 12 10
8 8 5 11 20 19 15 9 7 8 4 6 9 9 13 16 15 15 13 11 11 9 9 9 10 11 6 6 7 4 2 5 3 4 8 7 9 7 8 11 9 9 13
10 9 8 7 9 13 15 13 14 12 9 9 9 8 9 13 15 15 15 14 12 9 10 9 9 9 8 7 6 7 4 3 3 2 2 7 9 10 10 9 9 10 12
11 10 10 9 11 9 5 11 10 11 8 6 6 10 11 10 13 15 15 15 12 11 13 12 11 12 10 10 8 5 11 7 7 3 3 3 6 8 9 9 9 9 11
13 13 12 12 13 12 9 7 3 13 10 8 11 9 10 10 11 14 15 13 12 12 14 12 12 14 12 11 9 6 8 5 6 5 5 5 9 6 9 9 10 10 9
Wind_Direction
177 154 149 146 148 150 150 145 136 129 129 134 145 147 148 146 142 141 140 144 144 142 142 146 147 145 146 143 139 136 128 132 133 135 137 133 128 122 116 107 121 111 107
149 153 146 148 149 149 151 148 142 133 134 136 142 145 144 143 144 143 144 145 144 143 145 146 140 139 143 136 127 127 127 125 124 127 132 128 127 121 116 107 113 112 110
152 155 152 149 148 151 155 151 147 142 141 139 138 140 141 143 143 144 146 144 143 146 146 144 139 139 143 128 128 125 121 123 123 127 134 124 125 126 122 113 112 114 114
157 158 155 151 150 153 156 154 153 149 146 146 140 138 139 141 141 142 143 143 143 145 148 149 143 138 136 134 132 128 125 121 118 125 121 128 132 131 127 121 120 118 115
160 157 154 151 150 154 157 156 153 151 146 144 139 138 139 144 145 144 145 145 147 151 155 154 149 139 131 127 127 129 129 123 118 145 131 148 139 140 136 129 125 124 127
164 161 156 151 152 155 157 159 153 154 150 146 140 140 144 146 147 147 149 152 153 158 158 155 138 127 123 125 127 127 130 130 141 144 143 140 136 147 140 135 128 118 119
168 168 165 154 156 161 162 161 157 159 156 151 145 146 150 150 150 149 154 152 157 158 150 134 132 132 136 132 132 133 135 146 147 146 152 148 153 148 141 135 127 122 122
177 170 164 159 159 164 163 160 159 163 163 154 152 152 154 151 148 152 152 155 152 140 131 134 140 140 138 137 138 136 140 158 159 147 156 146 151 152 149 144 136 129 127
177 172 168 175 173 163 163 159 160 169 170 159 155 156 154 150 151 155 151 150 142 138 138 141 140 141 143 140 141 142 144 160 160 159 159 165 159 159 149 145 135 126 123
170 182 176 178 181 183 180 168 161 168 177 167 160 157 153 153 154 154 150 147 142 141 139 136 141 144 143 139 141 144 148 154 166 169 173 162 165 151 142 136 134 122 127
197 188 187 187 186 181 183 183 172 170 174 175 167 159 152 172 173 167 163 148 142 140 140 134 137 139 136 138 145 146 141 172 182 187 181 162 166 159 142 131 133 132 133
207 194 195 192 190 177 175 185 190 186 181 187 187 177 174 174 175 175 166 149 141 140 140 132 126 133 157 165 163 142 184 185 195 202 171 262 160 163 147 157 154 150 148
231 204 210 209 190 180 180 171 188 193 184 180 191 183 179 175 170 167 165 166 158 152 158 151 144 164 176 176 180 188 183 185 198 195 173 132 189 167 158 169 164 160 157
219 213 204 212 202 183 176 181 181 192 192 179 186 187 178 172 177 174 178 177 167 164 165 169 169 166 171 184 191 188 187 191 192 189 166 167 177 188 166 175 172 168 161
216 210 203 200 204 193 183 184 181 187 196 195 181 187 185 184 181 177 177 179 181 166 173 176 173 175 176 180 189 194 198 198 201 187 187 174 173 185 192 176 179 177 172
226 206 194 203 202 195 191 192 190 183 194 193 192 178 186 187 183 178 180 185 185 174 173 185 184 180 179 178 182 193 204 209 211 226 213 183 184 166 210 191 179 179 180
236 215 192 197 198 197 196 193 194 193 190 194 194 180 183 186 189 180 176 183 189 173 174 181 179 179 176 185 190 189 197 205 204 204 227 223 186 178 201 214 195 180 184
249 225 204 186 194 198 198 191 194 194 195 194 195 189 183 186 188 186 177 186 178 155 176 180 175 179 186 189 185 195 207 214 214 208 210 212 192 181 181 203 203 198 184
249 226 210 193 186 197 196 197 197 194 196 191 192 196 190 183 185 188 183 173 163 170 176 183 175 179 187 192 190 199 210 221 224 218 220 208 204 188 180 190 209 193 186
261 227 210 195 191 186 185 192 199 197 200 194 196 201 196 186 177 188 185 174 168 171 173 186 182 192 196 197 196 212 214 227 219 215 216 222 207 197 192 178 200 208 196
263 232 211 199 189 175 181 189 199 201 200 202 208 203 198 193 184 181 180 181 174 180 181 178 179 186 192 187 178 218 235 221 221 218 208 211 215 205 197 184 194 202 202
343 321 214 199 188 182 183 184 188 187 202 202 200 204 201 194 191 186 174 186 185 182 184 183 176 163 180 172 165 131 209 215 218 223 216 203 213 202 194 188 202 204 201
7 354 320 218 190 184 182 167 180 163 155 179 197 197 204 198 193 193 184 180 187 188 191 189 187 186 174 178 193 162 164 225 178 207 209 199 204 196 196 197 194 208 209
7 1 6 20 193 187 173 172 179 184 183 202 203 197 197 202 197 196 192 191 187 193 196 193 190 197 180 182 194 220 187 134 203 213 226 210 206 203 200 203 194 203 213
21 21 18 42 54 46 92 179 178 191 198 186 189 183 195 194 193 199 197 194 191 197 204 192 190 199 209 203 192 174 222 213 226 177 208 193 219 210 206 199 199 199 212
21 29 28 41 47 41 46 42 188 197 190 187 197 189 195 194 199 205 196 195 195 199 201 198 197 200 204 209 201 191 188 184 194 196 226 197 213 208 205 197 200 202 200